This demonstration page uses our WeatherBlox Daily Observations layout. Learn more.

Left ArrowRight Arrow

Hourly Observations for January 7, 2018

Temp ( °F °C ) Dew Point ( °F °C ) Humidity (%) Winds ( mph kmh ) Pressure ( in mb ) Visibility ( mi km ) Precip ( " mm )
12:53 am 00:53 Clear 43 6.1 38 3.3 82 82 SE 6 9 29.92 1013 10 16 0.00 0.00
1:53 am 01:53 Clear 43 6.1 39 3.9 86 86 SSE 6 9 29.88 1012 10 16 0.00 0.00
2:53 am 02:53 Clear 44 6.7 41 5 89 89 ESE 8 13 29.86 1011 10 16 0.00 0.00
3:53 am 03:53 Clear 45 7.2 41 5 86 86 ESE 6 9 29.86 1011 10 16 0.00 0.00
4:53 am 04:53 Clear 46 7.8 42 5.6 86 86 SSE 10 17 29.84 1011 10 16 0.00 0.00
5:53 am 05:53 Clear 45 7.2 42 5.6 90 90 Calm 29.85 1011 10 16 0.00 0.00
6:53 am 06:53 Clear 44 6.7 41 5 89 89 ESE 3 6 29.85 1011 10 16 0.00 0.00
7:53 am 07:53 Clear 45 7.2 42 5.6 90 90 SE 7 11 29.83 1010 10 16 0.00 0.00
8:53 am 08:53 Sunny 46 7.8 42 5.6 86 86 ENE 5 7 29.87 1011 10 16 0.00 0.00
9:53 am 09:53 Sunny 48 8.9 42 5.6 80 80 NNE 6 9 29.88 1012 10 16 0.00 0.00
10:53 am 10:53 Sunny 53 11.7 42 5.6 66 66 Calm 29.89 1012 10 16 0.00 0.00
11:53 am 11:53 Sunny 70 21.1 30 -1.1 23 23 WNW 15 24 29.85 1011 10 16 0.00 0.00
12:53 pm 12:53 Sunny 73 22.8 24 -4.4 16 16 N 25 41 29.84 1011 10 16 0.00 0.00
1:53 pm 13:53 Mostly Cloudy 74 23.3 31 -0.6 20 20 N 26 43 29.82 1010 10 16 0.00 0.00
2:53 pm 14:53 Mostly Cloudy 72 22.2 31 -0.6 22 22 N 23 37 29.85 1011 10 16 0.00 0.00
3:53 pm 15:53 Mostly Cloudy 68 20 28 -2.2 22 22 N 29 46 29.91 1013 10 16 0.00 0.00
4:53 pm 16:53 Mostly Cloudy 66 18.9 28 -2.2 24 24 NNE 18 30 29.95 1014 10 16 0.00 0.00
5:53 pm 17:53 Sunny 61 16.1 29 -1.7 30 30 NNE 9 15 29.99 1016 10 16 0.00 0.00
6:53 pm 18:53 Clear 55 12.8 29 -1.7 37 37 ENE 7 11 30.02 1017 10 16 0.00 0.00
7:53 pm 19:53 Clear 48 8.9 29 -1.7 48 48 WSW 3 6 30.07 1018 10 16 0.00 0.00
8:53 pm 20:53 Clear 45 7.2 29 -1.7 54 54 Calm 30.10 1019 10 16 0.00 0.00
9:53 pm 21:53 Clear 43 6.1 29 -1.7 58 58 NW 3 6 30.12 1020 10 16 0.00 0.00
10:53 pm 22:53 Clear 39 3.9 28 -2.2 65 65 NNW 6 9 30.14 1021 10 16 0.00 0.00
11:53 pm 23:53 Clear 38 3.3 29 -1.7 70 70 WNW 6 9 30.13 1020 10 16 0.00 0.00

Powered by AerisWeather